Location: Boca do Mato
(22.9085°S, 43.2930°W)
Time: 22:39:38
(UTC+00:00)

Aurora 2 Rocket - Pass Details

Date: 14 July 2020
Orbit: 390 x 1744 km, 25.0° (Epoch: 10 August)

Event Time Altitude Azimuth Distance (km) Brightness Sun altitude
Exits shadow 08:34:30 17° 260° (W) 3,069 5.4 -13.6°
Maximum altitude 08:42:03 85° 346° (NNW) 1,185 3.9 -11.9°
Drops below altitude 10° 08:48:34 10° 74° (ENE) 2,604 7.4 -10.5°
Sets 08:50:45 0° 75° (ENE) 3,365 8.6 -10.1°
